Weather History for KOXV - February, 2012

Change the Weather History Date:

Tuesday, February 21, 2012

  Actual Average Record
Temperature  
Mean Temperature 40 °F -  
Max Temperature 48 °F 42 °F 67 °F (1991)
Min Temperature 33 °F 23 °F -7 °F (1963)
Degree Days  
Heating Degree Days 24    
Moisture  
Dew Point 28 °F    
Average Humidity 64    
Maximum Humidity 81    
Minimum Humidity 40    
Precipitation  
Precipitation 0.00 in - - ()
Sea Level Pressure  
Sea Level Pressure 29.71 in    
Wind  
Wind Speed 12 mph (WSW)    
Max Wind Speed 23 mph    
Max Gust Speed 32 mph    
Visibility 10 miles    
Events      
Averages and records for this station are not official NWS values.
T = Trace of Precipitation, MM = Missing Value Source: NWS Daily Summary

Daily Weather History Graph

Daily Weather History Graph

Search for Another Location

Airport or City:

Trip Planner

Search our weather history database for the weather conditions in past years. The results will help you decide how hot, cold, wet, or windy it might be!

Date:

Astronomy

Feb. 21, 2012 Rise Set
Actual Time 6:59 AM CST 5:53 PM CST
Civil Twilight 6:31 AM CST 6:21 PM CST
Nautical Twilight 5:59 AM CST 6:53 PM CST
Astronomical Twilight 5:27 AM CST 7:25 PM CST
Moon 6:28 AM CST (2/21) 6:00 PM CST (2/21)
Length of Visible Light 11h 49m
Length of Day
10h 53m
Waning Crescent, 0% of the Moon is Illuminated
Feb 21
Waning Crescent
Feb 21
New
Feb 29
First Quarter
Mar 8
Full
Mar 14
Last Quarter

Hourly Weather History & Observations

Time (CST) Temp. Windchill Dew Point Humidity Pressure Visibility Wind Dir Wind Speed Gust Speed Precip Events Conditions
12:15 AM 37.4 °F 30.8 °F 24.8 °F 60% 29.62 in 10.0 mi ESE 9.2 mph - N/A   Scattered Clouds
12:35 AM 37.4 °F 30.8 °F 24.8 °F 60% 29.61 in 10.0 mi SE 9.2 mph - N/A   Scattered Clouds
12:55 AM 37.4 °F 30.8 °F 24.8 °F 60% 29.61 in 10.0 mi SE 9.2 mph - N/A   Scattered Clouds
1:15 AM 37.4 °F 32.8 °F 24.8 °F 60% 29.61 in 10.0 mi SSE 5.8 mph - N/A   Mostly Cloudy
1:35 AM 37.4 °F 32.1 °F 24.8 °F 60% 29.61 in 10.0 mi South 6.9 mph - N/A   Overcast
1:55 AM 37.4 °F 31.4 °F 26.6 °F 65% 29.61 in 10.0 mi South 8.1 mph - N/A   Overcast
2:15 AM 37.4 °F 31.4 °F 28.4 °F 70% 29.61 in 10.0 mi South 8.1 mph - N/A   Overcast
2:35 AM 37.4 °F 32.1 °F 30.2 °F 75% 29.60 in 10.0 mi South 6.9 mph - N/A   Overcast
2:55 AM 37.4 °F 32.8 °F 30.2 °F 75% 29.60 in 10.0 mi SSW 5.8 mph - N/A   Overcast
3:15 AM 39.2 °F 33.0 °F 32.0 °F 75% 29.59 in 10.0 mi SW 9.2 mph - N/A   Overcast
3:35 AM 39.2 °F 32.0 °F 33.8 °F 81% 29.59 in 10.0 mi SW 11.5 mph - N/A   Overcast
3:55 AM 39.2 °F 33.0 °F 33.8 °F 81% 29.59 in 10.0 mi WSW 9.2 mph - N/A   Overcast
4:15 AM 39.2 °F 33.0 °F 33.8 °F 81% 29.59 in 10.0 mi WSW 9.2 mph - N/A   Overcast
4:35 AM 39.2 °F 34.2 °F 33.8 °F 81% 29.59 in 10.0 mi SW 6.9 mph - N/A   Overcast
4:55 AM 39.2 °F 31.6 °F 33.8 °F 81% 29.60 in 10.0 mi West 12.7 mph 17.3 mph N/A   Overcast
5:15 AM 39.2 °F 29.8 °F 33.8 °F 81% 29.61 in 10.0 mi West 18.4 mph 24.2 mph N/A   Overcast
5:35 AM 39.2 °F 30.8 °F 33.8 °F 81% 29.64 in 10.0 mi West 15.0 mph 19.6 mph N/A   Overcast
6:15 AM 35.6 °F 26.2 °F 28.4 °F 75% 29.67 in 10.0 mi West 15.0 mph 26.5 mph N/A   Overcast
6:35 AM 35.6 °F 25.9 °F 28.4 °F 75% 29.68 in 10.0 mi West 16.1 mph 20.7 mph N/A   Overcast
6:55 AM 35.6 °F 25.9 °F 28.4 °F 75% 29.70 in 10.0 mi West 16.1 mph - N/A   Overcast
7:15 AM 35.6 °F 25.5 °F 28.4 °F 75% 29.70 in 10.0 mi West 17.3 mph 20.7 mph N/A   Overcast
7:35 AM 33.8 °F 23.9 °F 26.6 °F 75% 29.72 in 10.0 mi West 15.0 mph 19.6 mph N/A   Mostly Cloudy
7:55 AM 33.8 °F 24.8 °F 26.6 °F 75% 29.74 in 10.0 mi West 12.7 mph - N/A   Scattered Clouds
8:15 AM 33.8 °F 25.8 °F 26.6 °F 75% 29.74 in 10.0 mi West 10.4 mph - N/A   Clear
8:35 AM 35.6 °F 25.5 °F 28.4 °F 75% 29.75 in 10.0 mi West 17.3 mph - N/A   Clear
8:55 AM 35.6 °F 25.9 °F 28.4 °F 75% 29.76 in 10.0 mi West 16.1 mph - N/A   Scattered Clouds
9:15 AM 37.4 °F 27.8 °F 28.4 °F 70% 29.76 in 10.0 mi West 17.3 mph 23.0 mph N/A   Mostly Cloudy
9:35 AM 37.4 °F 27.5 °F 30.2 °F 75% 29.76 in 10.0 mi West 18.4 mph 21.9 mph N/A   Mostly Cloudy
9:55 AM 37.4 °F 27.8 °F 28.4 °F 70% 29.77 in 10.0 mi West 17.3 mph - N/A   Mostly Cloudy
10:15 AM 39.2 °F 30.2 °F 28.4 °F 65% 29.77 in 10.0 mi West 17.3 mph 25.3 mph N/A   Scattered Clouds
10:35 AM 39.2 °F 30.8 °F 30.2 °F 70% 29.77 in 10.0 mi West 15.0 mph 24.2 mph N/A   Clear
10:55 AM 42.8 °F 34.8 °F 30.2 °F 61% 29.76 in 10.0 mi West 17.3 mph 25.3 mph N/A   Clear
11:15 AM 42.8 °F 35.1 °F 30.2 °F 61% 29.77 in 10.0 mi West 16.1 mph - N/A   Clear
11:35 AM 42.8 °F 34.0 °F 28.4 °F 57% 29.76 in 10.0 mi West 20.7 mph - N/A   Clear
11:55 AM 42.8 °F 34.5 °F 28.4 °F 57% 29.76 in 10.0 mi West 18.4 mph 24.2 mph N/A   Clear
12:15 PM 44.6 °F 36.1 °F 28.4 °F 53% 29.76 in 10.0 mi West 21.9 mph 26.5 mph N/A   Clear
12:35 PM 46.4 °F 39.5 °F 28.4 °F 50% 29.75 in 10.0 mi West 17.3 mph 25.3 mph N/A   Scattered Clouds
12:55 PM 46.4 °F 38.7 °F 28.4 °F 50% 29.74 in 10.0 mi West 20.7 mph 24.2 mph N/A   Scattered Clouds
1:15 PM 46.4 °F 39.0 °F 26.6 °F 46% 29.74 in 10.0 mi West 19.6 mph 27.6 mph N/A   Clear
1:35 PM 48.2 °F - 26.6 °F 43% 29.74 in 10.0 mi West 19.6 mph 27.6 mph N/A   Scattered Clouds
2:15 PM 46.4 °F 38.3 °F 24.8 °F 43% 29.74 in 10.0 mi West 23.0 mph 29.9 mph N/A   Scattered Clouds
2:35 PM 48.2 °F - 24.8 °F 40% 29.74 in 10.0 mi WSW 21.9 mph 28.8 mph N/A   Scattered Clouds
2:55 PM 46.4 °F 38.3 °F 24.8 °F 43% 29.74 in 10.0 mi West 23.0 mph 32.2 mph N/A   Scattered Clouds
3:15 PM 46.4 °F 39.5 °F 26.6 °F 46% 29.74 in 10.0 mi WSW 17.3 mph 27.6 mph N/A   Mostly Cloudy
3:35 PM 46.4 °F 39.0 °F 26.6 °F 46% 29.75 in 10.0 mi West 19.6 mph 26.5 mph N/A   Mostly Cloudy
3:55 PM 46.4 °F 38.5 °F 24.8 °F 43% 29.74 in 10.0 mi West 21.9 mph 28.8 mph N/A   Mostly Cloudy
4:15 PM 44.6 °F 36.4 °F 24.8 °F 46% 29.75 in 10.0 mi WSW 20.7 mph - N/A   Scattered Clouds
4:35 PM 44.6 °F 36.6 °F 24.8 °F 46% 29.75 in 10.0 mi WSW 19.6 mph 24.2 mph N/A   Clear
4:55 PM 44.6 °F 37.2 °F 24.8 °F 46% 29.75 in 10.0 mi West 17.3 mph 24.2 mph N/A   Clear
5:15 PM 44.6 °F 37.2 °F 26.6 °F 49% 29.75 in 10.0 mi West 17.3 mph 23.0 mph N/A   Clear
5:35 PM 42.8 °F 35.4 °F 26.6 °F 53% 29.75 in 10.0 mi WSW 15.0 mph - N/A   Mostly Cloudy
5:55 PM 39.2 °F 33.6 °F 26.6 °F 61% 29.75 in 10.0 mi West 8.1 mph - N/A   Scattered Clouds
6:35 PM 35.6 °F 29.2 °F 24.8 °F 65% 29.77 in 10.0 mi West 8.1 mph - N/A   Clear
7:15 PM 33.8 °F 27.7 °F 24.8 °F 70% 29.77 in 10.0 mi WSW 6.9 mph - N/A   Clear
7:35 PM 35.6 °F 30.7 °F 24.8 °F 65% 29.76 in 10.0 mi SW 5.8 mph - N/A   Mostly Cloudy
7:55 PM 35.6 °F 29.9 °F 24.8 °F 65% 29.76 in 10.0 mi WSW 6.9 mph - N/A   Mostly Cloudy
8:15 PM 35.6 °F 29.9 °F 24.8 °F 65% 29.75 in 10.0 mi SW 6.9 mph - N/A   Mostly Cloudy
8:35 PM 33.8 °F 29.6 °F 24.8 °F 70% 29.75 in 10.0 mi SW 4.6 mph - N/A   Scattered Clouds
8:55 PM 35.6 °F 31.7 °F 24.8 °F 65% 29.74 in 10.0 mi SW 4.6 mph - N/A   Mostly Cloudy
9:15 PM 35.6 °F 32.8 °F 24.8 °F 65% 29.74 in 10.0 mi SW 3.5 mph - N/A   Overcast
9:35 PM 35.6 °F - 24.8 °F 65% 29.73 in 10.0 mi Calm Calm - N/A   Overcast
9:55 PM 35.6 °F 32.8 °F 24.8 °F 65% 29.72 in 10.0 mi SSW 3.5 mph - N/A   Overcast
10:15 PM 35.6 °F 31.7 °F 24.8 °F 65% 29.71 in 10.0 mi SSW 4.6 mph - N/A   Overcast
10:35 PM 35.6 °F 31.7 °F 24.8 °F 65% 29.70 in 10.0 mi SSW 4.6 mph - N/A   Overcast
10:55 PM 33.8 °F 30.8 °F 24.8 °F 70% 29.70 in 10.0 mi South 3.5 mph - N/A   Overcast
11:15 PM 33.8 °F 29.6 °F 24.8 °F 70% 29.69 in 10.0 mi South 4.6 mph - N/A   Overcast
11:35 PM 33.8 °F - 24.8 °F 70% 29.67 in 10.0 mi Calm Calm - N/A   Overcast
11:55 PM 35.6 °F 32.8 °F 24.8 °F 65% 29.66 in 10.0 mi South 3.5 mph - N/A   Overcast